Flag for Tajikistan Weather past 2 weeks in Dushanbe, Tajikistan

Now
91 °F

Passing clouds.


Feels Like: 87 °F
Forecast: 64 / 88 °F
Wind: 1 mph from North

Location: Dushanbe Airport

Current Time: Aug 2, 2014 at 3:11:57 PM

Latest Report: Aug 2, 2014 at 2:30 PM


Visibility: N/A

Pressure: 29.74 "Hg

Humidity: 13%

Dew point: 34 °F

Location of DushanbeLocation

Historic Weather in Dushanbe — Graph

°F

Dushanbe temperature yesterday

Maximum temperature yesterday: 93 °F (at 4:00 PM)
Minimum temperature yesterday: 64 °F (at 3:30 AM)
Average temperature yesterday: 78 °F

Past Weeks' High & Low Weather Summary

 TemperatureHumidityPressure
High104 °F (Jul 22, 4:30 PM)65% (Jul 30, 5:30 AM)29.89 "Hg (Jul 30, 5:30 AM)
Low64 °F (Jul 21, 5:00 AM)9% (Jul 21, 1:00 PM)29.56 "Hg (Jul 22, 4:00 PM)
Average83 °F31%29.72 "Hg
* Reported Jul 18 1:00 PM — Aug 2 1:30 PM, Dushanbe, Weather by CustomWeather, © 2014

Note: Actual official high and low records may vary slightly from our data, if they occured in-between our weather recording intervals... More about our weather records

Advertising

Dushanbe weather history for previous 24 hours

 ConditionsComfort  
Time TempWeatherWind HumidityBarometerVisibility
1:30 PM
Aug 2
91 °FPassing clouds.3 mph12%29.74 "HgN/A
1:00 PM91 °FPassing clouds.6 mph12%29.77 "HgN/A
12:30 PM90 °FPassing clouds.3 mph17%29.77 "HgN/A
12:00 PM88 °FPassing clouds.3 mph17%29.77 "HgN/A
11:30 AM88 °FPassing clouds.1 mph17%29.77 "HgN/A
11:00 AM88 °FPassing clouds.1 mph16%29.77 "HgN/A
10:30 AM86 °FPassing clouds.1 mph18%29.77 "HgN/A
10:00 AM84 °FPassing clouds.1 mph23%29.80 "HgN/A
9:30 AM82 °FPassing clouds.1 mph28%29.80 "Hg5 mi
9:00 AM79 °FScattered clouds.1 mph32%29.80 "HgN/A
8:30 AM75 °FPartly sunny.1 mph36%29.80 "HgN/A
8:00 AM73 °FOvercast.No wind41%29.80 "Hg6 mi
7:30 AM72 °FOvercast.No wind47%29.80 "Hg6 mi
7:00 AM68 °FOvercast.1 mph53%29.80 "Hg4 mi
6:30 AM66 °FOvercast.No wind49%29.80 "Hg5 mi
6:00 AM64 °FPartly sunny.1 mph52%29.80 "HgN/A
5:30 AM68 °FPartly sunny.No wind43%29.77 "HgN/A
5:00 AM68 °FPassing clouds.No wind46%29.77 "HgN/A
4:30 AM68 °FPassing clouds.1 mph46%29.77 "HgN/A
4:00 AM66 °FPassing clouds.1 mph46%29.77 "HgN/A
3:30 AM66 °FPassing clouds.3 mph52%29.77 "HgN/A
3:00 AM66 °FPassing clouds.3 mph52%29.77 "HgN/A
2:30 AM68 °FPassing clouds.1 mph46%29.77 "HgN/A
2:00 AM68 °FPassing clouds.1 mph43%29.77 "HgN/A
1:30 AM70 °FPassing clouds.1 mph38%29.77 "HgN/A
1:00 AM70 °FPassing clouds.1 mph38%29.77 "HgN/A
12:30 AM72 °FPassing clouds.1 mph33%29.77 "HgN/A
12:00 AM72 °FPassing clouds.1 mph33%29.77 "HgN/A
11:30 PM
Aug 1
72 °FClear.3 mph38%29.77 "HgN/A
11:00 PM75 °FClear.1 mph29%29.77 "HgN/A
10:30 PM73 °FClear.3 mph36%29.77 "Hg6 mi
10:00 PM75 °FClear.1 mph31%29.74 "Hg5 mi
9:30 PM77 °FClear.1 mph32%29.74 "Hg6 mi
9:00 PM77 °FClear.3 mph32%29.74 "HgN/A
8:30 PM79 °FClear.3 mph28%29.74 "HgN/A
8:00 PM81 °FClear.3 mph24%29.71 "Hg6 mi
7:30 PM84 °FSunny.8 mph18%29.71 "HgN/A
7:00 PM84 °FSunny.10 mph19%29.71 "HgN/A
6:30 PM86 °FSunny.10 mph19%29.71 "HgN/A
6:00 PM88 °FSunny.10 mph19%29.71 "HgN/A
5:30 PM88 °FSunny.13 mph19%29.71 "HgN/A
5:00 PM90 °FSunny.10 mph16%29.71 "HgN/A
4:30 PM91 °FSunny.10 mph18%29.71 "HgN/A
4:00 PM93 °FSunny.8 mph15%29.74 "HgN/A
3:30 PM91 °FPassing clouds.6 mph14%29.74 "HgN/A
3:00 PM91 °FPassing clouds.6 mph15%29.74 "HgN/A
Weather by CustomWeather, © 2014

See weather overviewHow to use our weather pages